Weather History for Three Rivers, MI

Change the Weather History Date:

Thursday, January 8, 2009

  Actual Average Record
Temperature  
Mean Temperature 24 °F -  
Max Temperature 28 °F 27 °F 60 °F (1965)
Min Temperature 19 °F 11 °F -16 °F (2014)
Degree Days  
Heating Degree Days 42    
Moisture  
Dew Point 20 °F    
Average Humidity 90    
Maximum Humidity 100    
Minimum Humidity 80    
Precipitation  
Precipitation 0.00 in - - ()
Sea Level Pressure  
Sea Level Pressure 29.66 in    
Wind  
Wind Speed 10 mph (WSW)    
Max Wind Speed 18 mph    
Max Gust Speed 24 mph    
Visibility 5 miles    
Events Snow    
Averages and records for this station are not official NWS values.
T = Trace of Precipitation, MM = Missing Value Source: NWS Daily Summary

Daily Weather History Graph

Daily Weather History Graph

Search for Another Location

Airport:

Trip Planner

Search our weather history database for the weather conditions in past years. The results will help you decide how hot, cold, wet, or windy it might be!

Date:

Astronomy

Jan. 08, 2009 Rise Set
Actual Time 8:10 AM EST 5:28 PM EST
Civil Twilight 7:38 AM EST 5:59 PM EST
Nautical Twilight 7:03 AM EST 6:34 PM EST
Astronomical Twilight 6:30 AM EST 7:08 PM EST
Moon 2:38 PM EST (1/8) 5:47 AM EST (1/8)
Length of Visible Light 10h 21m
Length of Day
9h 18m
Waxing Gibbous, 91% of the Moon is Illuminated
Jan 8
Waxing Gibbous
Jan 10
Full
Jan 17
Last Quarter
Jan 26
New
Feb 2
First Quarter

Hourly Weather History & Observations

Time (EST) Temp. Windchill Dew Point Humidity Pressure Visibility Wind Dir Wind Speed Gust Speed Precip Events Conditions
12:17 AM 23.0 °F 13.1 °F 21.2 °F 93% 29.43 in 5.0 mi WSW 9.2 mph 16.1 mph N/A Snow Light Snow
12:37 AM 23.0 °F 13.1 °F 21.2 °F 93% 29.43 in 5.0 mi West 9.2 mph 16.1 mph N/A Snow Light Snow
12:55 AM 23.0 °F 13.1 °F 21.2 °F 93% 29.43 in 4.0 mi West 9.2 mph 19.6 mph N/A Snow Light Snow
1:16 AM 23.0 °F 11.7 °F 21.2 °F 93% 29.44 in 3.0 mi West 11.5 mph 19.6 mph N/A Snow Light Snow
1:38 AM 23.0 °F 10.6 °F 19.4 °F 86% 29.45 in 3.0 mi West 13.8 mph 18.4 mph N/A Snow Light Snow
1:55 AM 23.0 °F 12.4 °F 19.4 °F 86% 29.45 in 5.0 mi WSW 10.4 mph 17.3 mph N/A Snow Light Snow
2:17 AM 21.2 °F 10.1 °F 19.4 °F 93% 29.47 in 5.0 mi WSW 10.4 mph 18.4 mph N/A Snow Light Snow
2:37 AM 21.2 °F 9.5 °F 19.4 °F 93% 29.47 in 5.0 mi WSW 11.5 mph 16.1 mph N/A Snow Light Snow
2:55 AM 21.2 °F 10.9 °F 19.4 °F 93% 29.48 in 5.0 mi West 9.2 mph 20.7 mph N/A Snow Light Snow
3:17 AM 21.2 °F 10.1 °F 19.4 °F 93% 29.50 in 5.0 mi West 10.4 mph 18.4 mph N/A Snow Light Snow
3:37 AM 21.2 °F 10.1 °F 19.4 °F 93% 29.50 in 7.0 mi West 10.4 mph 17.3 mph N/A Snow Light Snow
3:55 AM 21.2 °F 10.9 °F 19.4 °F 93% 29.50 in 7.0 mi WSW 9.2 mph 16.1 mph N/A   Overcast
4:17 AM 21.2 °F 9.5 °F 19.4 °F 93% 29.51 in 5.0 mi WSW 11.5 mph 17.3 mph N/A Snow Light Snow
4:37 AM 21.2 °F 10.9 °F 19.4 °F 93% 29.52 in 7.0 mi WSW 9.2 mph - N/A Snow Light Snow
4:55 AM 21.2 °F 10.9 °F 19.4 °F 93% 29.52 in 7.0 mi WSW 9.2 mph 16.1 mph N/A Snow Light Snow
5:17 AM 19.4 °F 7.2 °F 17.6 °F 93% 29.53 in 7.0 mi WSW 11.5 mph - N/A Snow Light Snow
5:37 AM 19.4 °F 8.6 °F 17.6 °F 93% 29.54 in 5.0 mi WSW 9.2 mph - N/A Snow Light Snow
5:55 AM 19.4 °F 8.6 °F 17.6 °F 93% 29.55 in 5.0 mi WSW 9.2 mph - N/A Snow Light Snow
6:17 AM 19.4 °F 7.9 °F 17.6 °F 93% 29.56 in 5.0 mi WSW 10.4 mph - N/A Snow Light Snow
6:38 AM 19.4 °F 8.6 °F 17.6 °F 93% 29.57 in 3.0 mi WSW 9.2 mph - N/A Snow Light Snow
6:55 AM 19.4 °F 9.5 °F 17.6 °F 93% 29.58 in 2.5 mi WSW 8.1 mph - N/A Snow Light Snow
7:17 AM 19.4 °F 8.6 °F 17.6 °F 93% 29.59 in 3.0 mi WSW 9.2 mph - N/A Snow Light Snow
7:37 AM 19.4 °F 8.6 °F 17.6 °F 93% 29.60 in 5.0 mi WSW 9.2 mph - N/A Snow Light Snow
7:55 AM 19.4 °F 10.4 °F 17.6 °F 93% 29.61 in 4.0 mi WSW 6.9 mph - N/A Snow Light Snow
8:17 AM 19.4 °F 8.6 °F 17.6 °F 93% 29.63 in 2.5 mi WSW 9.2 mph - N/A Snow Light Snow
8:37 AM 19.4 °F 11.5 °F 17.6 °F 93% 29.64 in 1.0 mi WSW 5.8 mph - N/A Snow Light Snow
8:55 AM 19.4 °F 11.5 °F 17.6 °F 93% 29.65 in 1.0 mi WSW 5.8 mph - N/A Snow Light Snow
9:17 AM 19.4 °F - 19.4 °F 100% 29.68 in 0.8 mi Calm Calm - N/A Snow Light Snow
9:37 AM 21.2 °F 13.6 °F 19.4 °F 93% 29.69 in 1.0 mi WSW 5.8 mph - N/A Snow Light Snow
9:55 AM 21.2 °F 14.9 °F 19.4 °F 93% 29.70 in 1.0 mi WSW 4.6 mph - N/A Snow Light Snow
10:17 AM 21.2 °F 13.6 °F 19.4 °F 93% 29.71 in 0.8 mi SW 5.8 mph - N/A Snow Light Snow
10:37 AM 21.2 °F 12.6 °F 19.4 °F 93% 29.72 in 1.8 mi WSW 6.9 mph - N/A Snow Light Snow
10:55 AM 21.2 °F 13.6 °F 19.4 °F 93% 29.72 in 3.0 mi WSW 5.8 mph - N/A Snow Light Snow
11:17 AM 21.2 °F 13.6 °F 19.4 °F 93% 29.73 in 0.2 mi WSW 5.8 mph - N/A Snow Snow
11:37 AM 21.2 °F 12.6 °F 19.4 °F 93% 29.73 in 0.5 mi WSW 6.9 mph - N/A Snow Snow
11:55 AM 23.0 °F 13.9 °F 21.2 °F 93% 29.73 in 0.8 mi WSW 8.1 mph - N/A Snow Light Snow
12:17 PM 23.0 °F 11.7 °F 21.2 °F 93% 29.73 in 0.8 mi West 11.5 mph 16.1 mph N/A Snow Light Snow
12:37 PM 26.6 °F 14.3 °F 23.0 °F 86% 29.74 in 1.2 mi West 16.1 mph 20.7 mph N/A Snow Light Snow
12:55 PM 28.4 °F 16.6 °F 23.0 °F 80% 29.74 in 3.0 mi West 16.1 mph - N/A Snow Light Snow
1:17 PM 28.4 °F 17.0 °F 23.0 °F 80% 29.74 in 5.0 mi West 15.0 mph 19.6 mph N/A Snow Light Snow
1:37 PM 28.4 °F 18.0 °F 23.0 °F 80% 29.75 in 5.0 mi West 12.7 mph 19.6 mph N/A Snow Light Snow
1:58 PM 28.4 °F 16.2 °F 23.0 °F 80% 29.76 in 5.0 mi West 17.3 mph 24.2 mph N/A Snow Light Snow
2:17 PM 26.6 °F 14.3 °F 23.0 °F 86% 29.76 in 7.0 mi West 16.1 mph 19.6 mph N/A   Overcast
2:37 PM 26.6 °F 14.3 °F 23.0 °F 86% 29.77 in 7.0 mi West 16.1 mph 23.0 mph N/A   Overcast
2:55 PM 28.4 °F 17.5 °F 23.0 °F 80% 29.78 in 10.0 mi West 13.8 mph 19.6 mph N/A   Overcast
3:17 PM 26.6 °F 13.4 °F 23.0 °F 86% 29.79 in 10.0 mi West 18.4 mph 23.0 mph N/A   Overcast
3:37 PM 26.6 °F 16.2 °F 23.0 °F 86% 29.81 in 10.0 mi West 11.5 mph 20.7 mph N/A   Overcast
3:55 PM 26.6 °F 16.8 °F 23.0 °F 86% 29.82 in 4.0 mi West 10.4 mph - N/A   Overcast
4:17 PM 24.8 °F 15.3 °F 21.2 °F 86% 29.83 in 3.0 mi West 9.2 mph 17.3 mph N/A   Overcast
4:37 PM 24.8 °F 15.3 °F 21.2 °F 86% 29.84 in 5.0 mi West 9.2 mph 16.1 mph N/A   Overcast
4:55 PM 23.0 °F 12.4 °F 21.2 °F 93% 29.85 in 5.0 mi West 10.4 mph - N/A   Overcast
5:17 PM 23.0 °F 12.4 °F 19.4 °F 86% 29.87 in 5.0 mi West 10.4 mph - N/A   Overcast
5:37 PM 23.0 °F 11.7 °F 19.4 °F 86% 29.87 in 5.0 mi West 11.5 mph - N/A   Overcast
5:55 PM 23.0 °F 13.1 °F 19.4 °F 86% 29.88 in 7.0 mi SW 9.2 mph - N/A   Overcast
6:17 PM 21.2 °F 11.7 °F 17.6 °F 86% 29.89 in 7.0 mi SW 8.1 mph - N/A   Overcast
6:37 PM 21.2 °F 11.7 °F 17.6 °F 86% 29.89 in 10.0 mi SW 8.1 mph - N/A   Overcast
6:55 PM 21.2 °F 12.6 °F 17.6 °F 86% 29.90 in 10.0 mi WSW 6.9 mph - N/A   Overcast
7:17 PM 21.2 °F 10.9 °F 15.8 °F 80% 29.90 in 10.0 mi SW 9.2 mph - N/A   Overcast
7:37 PM 21.2 °F 12.6 °F 15.8 °F 80% 29.91 in 10.0 mi WSW 6.9 mph - N/A   Overcast
7:55 PM 19.4 °F 11.5 °F 15.8 °F 86% 29.92 in 10.0 mi WSW 5.8 mph - N/A   Overcast
8:17 PM 19.4 °F 10.4 °F 14.0 °F 80% 29.92 in 10.0 mi SW 6.9 mph - N/A   Overcast
8:37 PM 19.4 °F 12.8 °F 14.0 °F 80% 29.92 in 7.0 mi SW 4.6 mph - N/A Snow Light Snow
8:55 PM 17.6 °F 9.3 °F 14.0 °F 86% 29.92 in 10.0 mi SW 5.8 mph - N/A   Mostly Cloudy
9:17 PM 15.8 °F 6.1 °F 12.2 °F 86% 29.93 in 7.0 mi SW 6.9 mph - N/A Snow Light Snow
9:37 PM 17.6 °F 8.2 °F 14.0 °F 86% 29.94 in 10.0 mi SW 6.9 mph - N/A   Overcast
9:55 PM 17.6 °F 12.3 °F 14.0 °F 86% 29.94 in 10.0 mi WSW 3.5 mph - N/A   Overcast
10:17 PM 17.6 °F 10.7 °F 12.2 °F 79% 29.94 in 10.0 mi SW 4.6 mph - N/A   Mostly Cloudy
10:37 PM 17.6 °F 12.3 °F 14.0 °F 86% 29.95 in 10.0 mi WSW 3.5 mph - N/A   Mostly Cloudy
10:55 PM 17.6 °F 8.2 °F 14.0 °F 86% 29.95 in 10.0 mi SW 6.9 mph - N/A   Overcast
11:17 PM 17.6 °F 8.2 °F 14.0 °F 86% 29.95 in 10.0 mi SW 6.9 mph - N/A   Overcast
11:37 PM 19.4 °F 11.5 °F 14.0 °F 80% 29.96 in 10.0 mi WSW 5.8 mph - N/A   Overcast
11:55 PM 19.4 °F 11.5 °F 15.8 °F 86% 29.96 in 10.0 mi WSW 5.8 mph - N/A   Overcast